DW6083 Weather Reports


Display with metric or nautical units.
time (UTC)temp
F
wind
direction
speed
MPH
gust
MPH
rain 1hr
in
rain 24hr
in
rain mn
in
humidity
%
barometer
mb
20260504213130 0 194 3.0 9.0 0.00 0.00 0.00 1013.7
20260504211556 0 170 4.0 9.0 0.00 0.00 0.00 1013.7
20260504210050 0 167 5.0 9.0 0.00 0.00 0.00 1013.6
20260504204547 81 175 5.0 8.0 0.00 0.00 0.00 29 1013.7
20260504203042 81 192 0.0 5.0 0.00 0.00 0.00 31 1013.9
20260504201536 80 188 0.0 8.0 0.00 0.00 0.00 31 1014.0
20260504200031 81 201 3.0 7.0 0.00 0.00 0.00 35 1014.1
20260504194526 80 186 0.0 0.0 0.00 0.00 0.00 31 1014.2
20260504193021 79 185 3.0 8.0 0.00 0.00 0.00 33 1014.5
20260504191519 79 189 0.0 4.0 0.00 0.00 0.00 33 1014.7
20260504190013 79 193 5.0 9.0 0.00 0.00 0.00 31 1015.1
20260504184512 79 182 5.0 9.0 0.00 0.00 0.00 39 1015.4
20260504183005 79 185 0.0 0.0 0.00 0.00 0.00 37 1015.4
20260504181519 78 185 1.0 6.0 0.00 0.00 0.00 36 1015.6
20260504180015 78 184 4.0 8.0 0.00 0.00 0.00 37 1015.7
20260504174511 78 202 0.0 0.0 0.00 0.00 0.00 40 1015.8
20260504173008 77 236 0.0 0.0 0.00 0.00 0.00 43 1016.0
20260504171600 76 234 0.0 0.0 0.00 0.00 0.00 42 1016.2
20260504140111 62 260 0.0 0.0 0.00 0.00 0.00 42 1017.9
20260504081515 0 257 0.0 0.0 0.00 0.00 0.00 1017.1
20260504050018 0 257 0.0 0.0 0.00 0.00 0.00 1017.6
20260504044532 0 257 0.0 0.0 0.00 0.00 0.00 1017.7
20260504043008 0 257 0.0 0.0 0.00 0.00 0.00 1017.5
20260504041504 0 257 0.0 0.0 0.00 0.00 0.00 1017.5
20260504040107 0 257 0.0 0.0 0.00 0.00 0.00 1017.6
20260504034602 48 257 0.0 0.0 0.00 0.00 0.00 1 1017.6
20260504033056 48 257 0.0 0.0 0.00 0.00 0.00 1 1017.5
20260504031548 49 257 0.0 0.0 0.00 0.00 0.00 1 1017.5
20260504030041 50 257 0.0 0.0 0.00 0.00 0.00 1 1017.4
20260504024544 50 257 0.0 0.0 0.00 0.00 0.00 1 1017.4
20260504023036 51 257 0.0 0.0 0.00 0.00 0.00 1 1017.1
20260504021535 52 257 0.0 0.0 0.00 0.00 0.00 8 1017.1
20260504020031 53 257 0.0 0.0 0.00 0.00 0.00 16 1017.0
20260504014522 55 257 0.0 0.0 0.00 0.00 0.00 22 1016.8
20260504013027 56 257 0.0 0.0 0.00 0.00 0.00 30 1016.6
20260504011513 57 257 0.0 0.0 0.00 0.00 0.00 34 1016.4
20260504010009 59 257 0.0 0.0 0.00 0.00 0.00 48 1016.3
20260504004507 60 257 0.0 0.0 0.00 0.00 0.00 54 1016.1
20260504003100 61 257 0.0 0.0 0.00 0.00 0.00 57 1016.0
20260504001611 63 257 0.0 0.0 0.00 0.00 0.00 58 1016.0
20260504000050 65 257 0.0 0.0 0.00 0.00 0.00 60 1016.2
20260503234546 66 257 0.0 0.0 0.00 0.00 0.00 57 1016.1
20260503233041 67 257 0.0 0.0 0.00 0.00 0.00 48 1016.1
20260503231538 0 257 0.0 0.0 0.00 0.00 0.00 1016.3
20260503230032 0 257 0.0 0.0 0.00 0.00 0.00 1016.3
20260503224528 0 265 0.0 0.0 0.00 0.00 0.00 1016.5
20260503223025 0 256 0.0 0.0 0.00 0.00 0.00 1016.4
20260503221529 0 256 0.0 0.0 0.00 0.00 0.00 1016.5
20260503220017 0 227 0.0 0.0 0.00 0.00 0.00 1016.4
20260503214510 0 227 0.0 0.0 0.00 0.00 0.00 1016.5